Regional Weather Roundup
Issued by NWS

Home | Current Version | Previous Version | Text Only | Print | Product List | Glossary Off
Versions: 1 2 3 4 5 6 7 8 9 10 11 12 13 14 15 16 17 18 19 20 21 22 23 24 25 26 27 28 29 30 31 32 33 34 35 36 37 38 39 40 41 42 43 44 45 46 47 48 49 50

000
ASUS43 KBIS 200310
RWRND

NORTH DAKOTA REGIONAL WEATHER ROUNDUP
NATIONAL WEATHER SERVICE BISMARCK ND
1000 PM CDT TUE SEP 19 2017

NOTE: "FAIR" INDICATES FEW OR NO CLOUDS BELOW 12,000 FEET WITH NO
SIGNIFICANT WEATHER AND/OR OBSTRUCTIONS TO VISIBILITY.


NDZ001>003-009>011-017-200400-
NORTHWEST NORTH DAKOTA

CITY           SKY/WX    TMP DP  RH WIND       PRES   REMARKS
WILLISTON      CLOUDY    54  42  64 W13       29.56F
MINOT          CLOUDY    58  49  72 W20G28    29.48S
MINOT AFB      CLOUDY    56  48  73 W17       29.45F
$$

NDZ018>021-031>035-040>046-200400-
SOUTHWEST NORTH DAKOTA

CITY           SKY/WX    TMP DP  RH WIND       PRES   REMARKS
BISMARCK       LGT RAIN  57  36  45 W16G22    29.56R
DICKINSON      PTCLDY    47  44  90 W12       29.60F
GARRISON         N/A     52  47  83 W20G32    29.50F
HETTINGER ARPT PTCLDY    46  42  86 W12       29.67S
$$

NDZ004>008-012>016-024-026-027-054-200400-
NORTHEAST NORTH DAKOTA

CITY           SKY/WX    TMP DP  RH WIND       PRES   REMARKS
GRAND FORKS    LGT RAIN  66  65  96 E22G32    29.43R
GRND FRKS AFB  LGT RAIN  66  66 100 SE18G26   29.44R
DEVILS LAKE    CLOUDY    60  57  89 W12       29.48R
$$

NDZ022-023-025-028>030-036>039-047>053-200400-
SOUTHEAST NORTH DAKOTA

CITY           SKY/WX    TMP DP  RH WIND       PRES   REMARKS
FARGO          CLOUDY    74  67  78 S9G26     29.39F THUNDER
JAMESTOWN      LGT RAIN  62  57  83 NW15      29.50R
$$





USA.gov is the U.S. government's official web portal to all federal, state and local government web resources and services.